Price, UT

7:23 AM MDT on May 23, 2018 (GMT -0600)
Carbon County

Weather History for KPUC - February, 2014

Change the Weather History Date:

Tuesday, February 25, 2014

  Actual Average Record
Temperature  
Mean Temperature 45 °F -  
Max Temperature 62 °F 38 °F 68 °F (1986)
Min Temperature 28 °F 20 °F 6 °F (1974)
Degree Days  
Heating Degree Days 20    
Moisture  
Dew Point 17 °F    
Average Humidity 35    
Maximum Humidity 56    
Minimum Humidity 15    
Precipitation  
Precipitation 0.00 in - - ()
Sea Level Pressure  
Sea Level Pressure 30.01 in    
Wind  
Wind Speed 7 mph (North)    
Max Wind Speed 16 mph    
Max Gust Speed 26 mph    
Visibility 10 miles    
Events      
Averages and records for this station are not official NWS values.
T = Trace of Precipitation, MM = Missing Value Source: NWS Daily Summary

Daily Weather History Graph

Daily Weather History Graph

Search for Another Location

Airport or City:

Astronomy

Feb. 25, 2014 Rise Set
Actual Time 7:01 AM MST 6:10 PM MST
Civil Twilight 6:34 AM MST 6:38 PM MST
Nautical Twilight 6:03 AM MST 7:09 PM MST
Astronomical Twilight 5:32 AM MST 7:40 PM MST
Moon 3:59 AM MST (2/25) 2:21 PM MST (2/25)
Length of Visible Light 12h 03m
Length of Day
11h 09m
Waning Crescent, 17% of the Moon is Illuminated
Feb 25
Waning Crescent
Mar 1
New
Mar 8
First Quarter
Mar 16
Full
Mar 23
Last Quarter

Hourly Weather History & Observations

Time (MST) Temp. Windchill Dew Point Humidity Pressure Visibility Wind Dir Wind Speed Gust Speed Precip Events Conditions
12:53 AM 35.1 °F 27.9 °F 15.1 °F 44% 30.04 in 10.0 mi NE 9.2 mph - N/A   Clear
1:53 AM 32.0 °F 27.5 °F 12.9 °F 45% 30.04 in 10.0 mi NE 4.6 mph - N/A   Clear
2:53 AM 33.1 °F 26.9 °F 15.1 °F 48% 30.02 in 10.0 mi NE 6.9 mph - N/A   Clear
3:53 AM 30.9 °F 22.8 °F 14.0 °F 50% 30.03 in 10.0 mi NNE 9.2 mph - N/A   Clear
4:53 AM 33.1 °F 26.9 °F 16.0 °F 50% 30.01 in 10.0 mi NE 6.9 mph - N/A   Clear
5:53 AM 30.9 °F - 15.1 °F 52% 30.04 in 10.0 mi Calm Calm - N/A   Clear
6:53 AM 28.9 °F 21.9 °F 15.1 °F 56% 30.07 in 10.0 mi NNE 6.9 mph - N/A   Clear
7:53 AM 36.0 °F - 17.1 °F 46% 30.09 in 10.0 mi Calm Calm - N/A   Clear
8:53 AM 41.0 °F - 17.1 °F 38% 30.08 in 10.0 mi Calm Calm - N/A   Clear
9:53 AM 46.9 °F - 17.1 °F 30% 30.06 in 10.0 mi Variable 3.5 mph - N/A   Clear
10:53 AM 52.0 °F - 16.0 °F 24% 30.03 in 10.0 mi ESE 4.6 mph - N/A   Clear
11:53 AM 55.0 °F - 12.9 °F 19% 30.00 in 10.0 mi South 5.8 mph - N/A   Clear
12:53 PM 59.0 °F - 14.0 °F 17% 29.97 in 10.0 mi SW 5.8 mph - N/A   Clear
1:53 PM 62.1 °F - 12.9 °F 15% 29.94 in 10.0 mi WNW 12.7 mph 21.9 mph N/A   Clear
2:53 PM 61.0 °F - 15.1 °F 17% 29.94 in 10.0 mi WNW 15.0 mph 26.5 mph N/A   Clear
3:53 PM 62.1 °F - 16.0 °F 17% 29.93 in 10.0 mi NW 16.1 mph 25.3 mph N/A   Clear
4:53 PM 57.9 °F - 18.0 °F 21% 29.96 in 10.0 mi NW 15.0 mph 23.0 mph N/A   Clear
5:53 PM 55.0 °F - 19.0 °F 24% 29.98 in 10.0 mi NNW 9.2 mph - N/A   Clear
6:53 PM 48.9 °F - 19.0 °F 31% 30.03 in 10.0 mi North 10.4 mph - N/A   Clear
7:53 PM 50.0 °F - 19.9 °F 31% 29.99 in 10.0 mi NNW 10.4 mph - N/A   Clear
8:53 PM 46.9 °F - 19.9 °F 34% 29.99 in 10.0 mi Calm Calm - N/A   Clear
9:53 PM 42.1 °F 40.2 °F 19.9 °F 41% 29.99 in 10.0 mi WNW 3.5 mph - N/A   Clear
10:53 PM 37.9 °F 32.7 °F 19.0 °F 47% 30.00 in 10.0 mi NNE 6.9 mph - N/A   Clear
11:53 PM 37.0 °F 28.9 °F 21.9 °F 54% 29.99 in 10.0 mi NNE 12.7 mph - N/A   Clear